Date String (YYYY-MM-DD hh:mm:ss) UTC,Instrument flags,absolute air pressure of the measurement (hPa),sample flow rate (lpm),inlet stack bypass flow (lpm),air temperature of the measurement (°C),ambient temperature measured by the external sensor (°C),aerosol sample conditioner tube jacket temperature (°C),OPC LED temperature (°C),internal box temperature (°C),relative humidity of the measurement (%),span deviation,mass concentration of particles derived from Lorenz-Mie calculation of OPC scattering (μg/m³),mass concentration of particles derived from Lorenz-Mie calculation of OPC scattering (μg/m³),mass concentration of particles derived from Lorenz-Mie calculation of OPC scattering (μg/m³)
DateTimeUTC,F1_M11,P_M11,Q1_M11,Q2_M11,T1_M11,T2_M11,T3_M11,T4_M11,T5_M11,U1_M11,ZSPAN_M11,X2_M11,X0_M11,X1_M11
2023-07-11 04:00:00,SystemResetWarning,0830.7,4.99,000.00,029.2,027.4,000.0,037.5,030.8,23.3,0000.0,0005.08,0015.65,0004.34
2023-07-11 04:01:00,SystemResetWarning,0830.7,5.00,000.00,029.1,025.8,000.0,037.3,030.6,23.4,0000.0,0005.03,0015.27,0004.34
2023-07-11 04:02:00,SystemResetWarning,0830.7,5.01,000.00,029.1,025.3,000.0,037.3,030.4,23.3,0000.0,0005.04,0014.81,0004.35
2023-07-11 04:03:00,SystemResetWarning,0830.7,5.01,000.00,029.0,025.6,000.0,037.3,030.3,23.5,0000.0,0004.98,0014.41,0004.34
2023-07-11 04:04:00,SystemResetWarning,0830.7,5.00,000.00,028.9,025.9,000.0,037.3,030.3,23.5,0000.0,0004.98,0013.61,0004.33
2023-07-11 04:05:00,SystemResetWarning,0830.7,5.01,000.00,028.9,026.4,000.0,037.4,030.4,23.6,0000.0,0004.98,0012.21,0004.32
2023-07-11 04:06:00,SystemResetWarning,0830.7,4.99,000.00,029.0,026.7,000.0,037.4,030.5,23.5,0000.0,0004.98,0011.69,0004.31
2023-07-11 04:07:00,SystemResetWarning,0830.7,5.00,000.00,029.0,027.1,000.0,037.4,030.6,23.5,0000.0,0004.95,0010.87,0004.30
2023-07-11 04:08:00,SystemResetWarning,0830.8,5.00,000.00,029.0,027.3,000.0,037.4,030.7,23.4,0000.0,0004.93,0010.87,0004.29
2023-07-11 04:09:00,SystemResetWarning,0830.8,5.00,000.00,029.1,027.6,000.0,037.5,030.7,23.3,0000.0,0004.92,0010.41,0004.28
2023-07-11 04:10:00,SystemResetWarning,0830.8,5.00,000.00,029.1,027.8,000.0,037.5,030.8,23.2,0000.0,0004.86,0009.82,0004.26
2023-07-11 04:11:00,SystemResetWarning,0830.8,5.01,000.00,029.2,027.9,000.0,037.5,030.8,23.3,0000.0,0004.87,0009.41,0004.25
2023-07-11 04:12:00,SystemResetWarning,0830.8,4.98,000.00,029.2,027.7,000.0,037.5,030.9,23.0,0000.0,0004.91,0009.50,0004.23
2023-07-11 04:13:00,SystemResetWarning,0830.8,5.00,000.00,029.2,026.1,000.0,037.4,030.6,22.8,0000.0,0004.87,0009.20,0004.21
2023-07-11 04:14:00,SystemResetWarning,0830.7,5.01,000.00,029.1,025.3,000.0,037.3,030.5,22.9,0000.0,0004.85,0008.64,0004.20
2023-07-11 04:15:00,SystemResetWarning,0830.7,5.01,000.00,029.0,025.4,000.0,037.3,030.2,22.9,0000.0,0004.88,0008.78,0004.19
2023-07-11 04:16:00,SystemResetWarning,0830.7,5.00,000.00,028.9,025.8,000.0,037.3,030.3,22.9,0000.0,0004.88,0009.30,0004.18
2023-07-11 04:17:00,SystemResetWarning,0830.7,4.99,000.00,028.9,026.2,000.0,037.4,030.4,23.0,0000.0,0004.86,0009.31,0004.18
2023-07-11 04:18:00,SystemResetWarning,0830.7,5.00,000.00,029.0,026.6,000.0,037.4,030.5,22.8,0000.0,0004.86,0009.25,0004.18
2023-07-11 04:19:00,SystemResetWarning,0830.7,5.00,000.00,029.0,026.9,000.0,037.4,030.5,22.7,0000.0,0004.89,0009.37,0004.17
2023-07-11 04:20:00,SystemResetWarning,0830.7,5.00,000.00,029.0,027.2,000.0,037.4,030.6,22.7,0000.0,0004.88,0009.39,0004.17
2023-07-11 04:21:00,SystemResetWarning,0830.7,4.98,000.00,029.0,027.5,000.0,037.5,030.7,22.5,0000.0,0004.85,0009.38,0004.16
2023-07-11 04:22:00,SystemResetWarning,0830.7,5.02,000.00,029.1,027.7,000.0,037.5,030.8,22.5,0000.0,0004.85,0009.58,0004.16
2023-07-11 04:23:00,SystemResetWarning,0830.7,5.01,000.00,029.1,027.9,000.0,037.5,030.8,22.4,0000.0,0004.81,0009.95,0004.17
2023-07-11 04:24:00,SystemResetWarning,0830.7,4.98,000.00,029.2,028.0,000.0,037.5,030.9,22.4,0000.0,0004.80,0009.91,0004.17
2023-07-11 04:25:00,SystemResetWarning,0830.7,5.00,000.00,029.2,027.6,000.0,037.5,030.9,22.3,0000.0,0004.82,0009.96,0004.17
2023-07-11 04:26:00,SystemResetWarning,0830.7,5.00,000.00,029.2,025.9,000.0,037.4,030.6,22.4,0000.0,0004.83,0009.98,0004.18
2023-07-11 04:27:00,SystemResetWarning,0830.7,5.01,000.00,029.1,025.3,000.0,037.3,030.4,22.6,0000.0,0004.80,0009.49,0004.18
2023-07-11 04:28:00,SystemResetWarning,0830.8,5.01,000.00,029.0,025.5,000.0,037.4,030.3,22.6,0000.0,0004.81,0009.94,0004.18
2023-07-11 04:29:00,SystemResetWarning,0830.8,5.00,000.00,029.0,025.9,000.0,037.4,030.3,22.9,0000.0,0004.84,0010.30,0004.18
2023-07-11 04:30:00,SystemResetWarning,0830.8,5.00,000.00,029.0,026.3,000.0,037.4,030.4,22.9,0000.0,0004.84,0010.29,0004.18
2023-07-11 04:31:00,SystemResetWarning,0830.9,5.00,000.00,029.0,026.7,000.0,037.4,030.5,23.2,0000.0,0004.84,0010.44,0004.17
2023-07-11 04:32:00,SystemResetWarning,0830.8,4.99,000.00,029.0,027.0,000.0,037.5,030.6,22.9,0000.0,0004.84,0011.12,0004.17
2023-07-11 04:33:00,SystemResetWarning,0830.8,5.00,000.00,029.0,027.3,000.0,037.5,030.7,22.8,0000.0,0004.84,0011.14,0004.17
2023-07-11 04:34:00,SystemResetWarning,0830.9,4.99,000.00,029.1,027.5,000.0,037.5,030.7,22.7,0000.0,0004.86,0010.56,0004.16
2023-07-11 04:35:00,SystemResetWarning,0830.9,5.01,000.00,029.1,027.7,000.0,037.5,030.8,22.5,0000.0,0004.86,0010.81,0004.16
2023-07-11 04:36:00,SystemResetWarning,0830.9,5.01,000.00,029.1,027.9,000.0,037.5,030.8,22.3,0000.0,0004.86,0012.39,0004.15
2023-07-11 04:37:00,SystemResetWarning,0830.9,4.99,000.00,029.2,028.0,000.0,037.6,030.9,22.2,0000.0,0004.82,0012.62,0004.14
2023-07-11 04:38:00,SystemResetWarning,0830.8,5.00,000.00,029.2,027.9,000.0,037.6,030.9,22.2,0000.0,0004.81,0012.66,0004.13
2023-07-11 04:39:00,SystemResetWarning,0830.8,4.99,000.00,029.2,026.3,000.0,037.5,030.7,22.0,0000.0,0004.79,0012.94,0004.13
2023-07-11 04:40:00,SystemResetWarning,0830.7,5.01,000.00,029.1,025.4,000.0,037.4,030.5,22.0,0000.0,0004.75,0012.44,0004.11
2023-07-11 04:41:00,SystemResetWarning,0830.7,5.02,000.00,029.0,025.4,000.0,037.4,030.3,22.0,0000.0,0004.72,0012.26,0004.12
2023-07-11 04:42:00,SystemResetWarning,0830.8,4.99,000.00,029.0,025.8,000.0,037.4,030.3,22.1,0000.0,0004.69,0012.07,0004.11
2023-07-11 04:43:00,SystemResetWarning,0830.8,4.99,000.00,029.0,026.2,000.0,037.4,030.4,22.0,0000.0,0004.70,0011.85,0004.10
2023-07-11 04:44:00,SystemResetWarning,0830.7,5.00,000.00,029.0,026.6,000.0,037.5,030.5,21.9,0000.0,0004.71,0011.61,0004.08
2023-07-11 04:45:00,SystemResetWarning,0830.8,5.01,000.00,029.0,026.9,000.0,037.5,030.6,22.0,0000.0,0004.70,0011.92,0004.07
2023-07-11 04:46:00,SystemResetWarning,0830.8,4.99,000.00,029.0,027.2,000.0,037.5,030.6,21.9,0000.0,0004.69,0012.21,0004.06
2023-07-11 04:47:00,SystemResetWarning,0830.8,4.99,000.00,029.1,027.4,000.0,037.5,030.7,21.8,0000.0,0004.70,0010.76,0004.05
2023-07-11 04:48:00,SystemResetWarning,0830.8,5.00,000.00,029.1,027.6,000.0,037.5,030.8,21.6,0000.0,0004.70,0010.28,0004.05
2023-07-11 04:49:00,SystemResetWarning,0830.8,5.01,000.00,029.1,027.8,000.0,037.5,030.8,21.5,0000.0,0004.71,0010.24,0004.04
2023-07-11 04:50:00,SystemResetWarning,0830.8,5.00,000.00,029.2,027.9,000.0,037.6,030.9,21.4,0000.0,0004.71,0009.60,0004.02
2023-07-11 04:51:00,SystemResetWarning,0830.8,4.98,000.00,029.2,028.1,000.0,037.6,030.9,21.3,0000.0,0004.69,0009.63,0004.01
2023-07-11 04:52:00,SystemResetWarning,0830.8,5.01,000.00,029.3,028.2,000.0,037.6,031.0,21.2,0000.0,0004.72,0009.76,0003.99
2023-07-11 04:53:00,SystemResetWarning,0830.8,4.99,000.00,029.3,027.2,000.0,037.6,030.9,21.2,0000.0,0004.73,0009.97,0003.98
2023-07-11 04:54:00,SystemResetWarning,0830.7,5.01,000.00,029.2,025.6,000.0,037.5,030.6,21.3,0000.0,0004.72,0009.51,0003.96
2023-07-11 04:55:00,SystemResetWarning,0830.7,5.01,000.00,029.1,025.4,000.0,037.4,030.5,21.4,0000.0,0004.70,0009.41,0003.96
2023-07-11 04:56:00,SystemResetWarning,0830.7,5.00,000.00,029.1,025.7,000.0,037.4,030.4,21.4,0000.0,0004.72,0009.16,0003.94
2023-07-11 04:57:00,SystemResetWarning,0830.7,5.00,000.00,029.0,026.1,000.0,037.5,030.4,21.4,0000.0,0004.72,0008.70,0003.93
2023-07-11 04:58:00,SystemResetWarning,0830.7,5.00,000.00,029.0,026.5,000.0,037.5,030.5,21.5,0000.0,0004.66,0009.83,0003.92
2023-07-11 04:59:00,SystemResetWarning,0830.7,5.00,000.00,029.1,026.8,000.0,037.5,030.6,21.4,0000.0,0004.66,0010.92,0003.91
